Regional Weather Roundup
Issued by NWS

Home | Current Version | Previous Version | Text Only | Print | Product List | Glossary On
Versions: 1 2 3 4 5 6 7 8 9 10 11 12 13 14 15 16 17 18 19 20 21 22 23 24 25 26 27 28 29 30 31 32 33 34 35 36 37 38 39 40 41 42 43 44 45 46 47 48 49 50
240
ASUS44 KJAN 312303
RWRMS

MISSISSIPPI HOURLY WEATHER ROUNDUP
NATIONAL WEATHER SERVICE JACKSON MS
600 PM CDT THU JUL 31 2014

NOTE: "FAIR: INDICATES FEW OR NO CLOUDS BELOW 12,000 FEET WITH NO
SIGNIFICANT WEATHER AND/OR OBSTRUCTIONS TO VISIBILITY.

MSZ001>002-007>008-010>013-018>021-025>028-034>036-010000-
NORTHWEST MISSISSIPPI

CITY           SKY/WX    TMP DP  RH WIND       PRES   REMARKS
CLARKSDALE     CLOUDY    75  66  73 NE7       30.06F
CLEVELAND      DRIZZLE   76  70  82 CALM      30.04S
GREENWOOD      LGT RAIN  77  68  73 N3        30.04S
GREENVILLE     LGT RAIN  73  70  90 N5        30.04F FOG
GRENADA        CLOUDY    77  63  61 N6        30.05S
OLIVE BRANCH   CLOUDY    75  70  83 N6        30.07S
OXFORD         FAIR      77  61  57 CALM      30.07F
TUNICA         CLOUDY    73  64  73 N5        30.07S
$$

MSZ003>006-009-014>017-022>024-029>033-037>039-010000-
NORTHEAST MISSISSIPPI

CITY           SKY/WX    TMP DP  RH WIND       PRES   REMARKS
BELMONT        MOCLDY    79  66  64 NE3       30.06F
COLUMBUS AFB   MOSUNNY   82  60  48 E1        30.04F
CORINTH        MOCLDY    79  63  57 NE3       30.05F
GOLDN TRIANGLE SUNNY     81  59  47 NE7       30.05F
STARKVILLE     FAIR      79  61  53 CALM      30.04F
TUPELO         CLOUDY    80  61  52 E6        30.04F
$$

MSZ040-058-010000-
CENTRAL MISSISSIPPI

CITY           SKY/WX    TMP DP  RH WIND       PRES   REMARKS
JACKSON INTL   CLOUDY    82  63  52 N8        30.03S
JACKSON HAWKNS CLOUDY    81  62  52 VRB5      30.04S
MERIDIAN KEY   PTSUNNY   83  59  44 NE8       30.02S
MERIDIAN NAS   PTSUNNY   82  59  45 N3        30.03S
RAYMOND        FAIR      79  73  83 CALM      30.04S
VICKSBURG      CLOUDY    80  64  58 E3        30.02F
$$

MSZ059>079-010000-
SOUTH MISSISSIPPI

CITY           SKY/WX    TMP DP  RH WIND       PRES   REMARKS
BROOKHAVEN     FAIR      77  66  69 CALM      30.05F
COLUMBIA       FAIR      81  66  61 N5        30.02R
HATTIESBURG    PTSUNNY   83  64  52 N6        30.02S
MCCOMB         CLOUDY    80  69  69 NE7       30.02S
NATCHEZ        CLOUDY    77  66  69 E6        30.02F
PINE BELT      PTSUNNY   81  64  57 CALM      30.04S
$$

MSZ080>082-010000-
COASTAL MISSISSIPPI

CITY           SKY/WX    TMP DP  RH WIND       PRES   REMARKS
BAY ST LOUIS   SUNNY    N/A N/A N/A CALM      29.99R
BILOXI         MOSUNNY   83  63  51 SW8       29.99S
PASCAGOULA     MOSUNNY   83  65  54 S6        29.98S
GULFPORT       MOSUNNY   86  63  45 SW6       29.98S
$$



USA.gov is the U.S. government's official web portal to all federal, state and local government web resources and services.